Probability
7 9 12 13 11 10 12 13 14 13 10 9 9 8 8 8 10 10 10 9 9 7 6 7 8 8 6 6 7 7 6 6 6 4 2 1 0 1 1 1 0 0 0
8 10 12 12 10 9 10 11 12 10 8 7 7 7 6 6 7 9 9 9 8 7 5 5 6 6 4 4 5 5 5 5 5 4 2 1 0 0 0 0 0 0 0
8 10 11 11 9 8 9 10 8 6 4 4 5 6 6 6 6 6 7 8 9 8 7 5 5 5 4 2 2 3 4 4 4 3 1 0 0 0 0 0 0 0 0
7 9 10 10 10 9 10 10 7 4 3 4 5 6 7 6 6 6 6 8 9 9 8 7 7 6 5 3 2 3 3 3 3 2 1 0 0 0 0 0 0 0 0
9 9 9 10 11 11 12 10 6 3 3 5 6 7 7 6 6 6 6 7 8 8 8 9 10 9 6 4 3 3 3 4 4 3 1 0 0 0 0 0 0 0 0
8 9 9 9 10 11 11 9 6 3 3 5 7 8 8 7 7 7 7 7 7 7 8 10 12 11 7 4 3 4 4 5 5 4 2 1 0 0 0 0 0 0 0
5 6 7 7 7 7 7 7 6 4 4 6 8 9 8 7 8 8 8 9 7 6 7 9 12 11 8 5 5 6 6 6 6 5 3 1 0 0 0 0 0 0 0
2 3 4 4 3 3 4 6 6 6 6 7 8 9 8 8 8 8 9 10 9 8 7 8 9 10 9 7 7 7 6 6 5 4 2 0 0 0 0 0 0 0 0
0 1 2 2 1 1 3 4 5 6 7 6 6 6 7 8 8 7 8 9 9 8 8 7 8 9 9 8 8 6 5 4 3 2 0 0 0 0 0 0 0 0 0
0 0 0 1 1 2 3 3 5 7 7 6 5 5 7 8 8 7 7 7 6 6 7 7 8 8 8 7 6 5 3 2 1 0 0 0 0 0 0 0 0 0 0
0 0 0 0 1 1 3 4 5 7 6 6 5 5 6 7 7 6 6 5 3 3 4 5 6 6 5 5 5 4 2 1 0 0 0 0 0 0 0 0 0 0 0
1 1 1 0 0 1 3 5 5 6 5 4 4 5 5 5 5 5 4 4 3 2 3 3 4 4 3 3 3 3 1 0 0 0 0 0 0 0 0 0 0 0 0
2 2 2 1 1 1 3 4 4 4 4 4 4 4 4 4 4 3 3 3 3 3 3 3 3 3 3 3 3 3 1 0 0 0 0 0 0 0 0 0 0 0 0
3 2 1 1 1 2 3 3 3 3 4 4 4 3 3 2 2 1 1 2 2 3 3 3 3 3 3 3 3 3 2 0 0 0 0 0 0 0 0 0 0 0 0
2 1 0 1 1 2 2 3 3 3 3 4 3 3 1 1 0 0 0 1 1 1 2 2 2 3 3 3 3 2 1 0 0 0 0 0 0 0 0 0 0 0 0
2 1 0 0 0 1 1 2 3 3 3 3 3 2 1 0 0 0 0 0 0 0 1 1 1 1 2 2 1 1 0 0 0 0 0 0 0 0 0 0 0 0 0
1 0 0 0 0 0 0 1 2 2 2 2 2 1 0 0 0 0 0 0 0 0 0 0 0 0 1 1 0 0 0 0 0 0 0 0 0 0 0 0 0 0 0
0 0 0 0 0 0 0 0 1 1 1 1 1 0 0 0 0 0 0 0 0 0 0 0 0 0 0 0 0 0 0 0 0 0 0 0 0 0 0 0 0 0 0
0 0 0 0 0 0 0 0 0 0 0 0 0 0 1 1 0 0 0 0 0 0 0 0 0 0 0 0 0 0 0 0 0 0 0 0 0 0 0 0 0 0 0
0 0 0 0 0 0 0 0 0 0 0 0 0 0 1 1 0 0 0 0 0 0 0 0 0 0 0 0 0 0 0 0 0 0 0 0 0 0 0 0 0 0 0
0 0 0 0 0 0 0 0 1 0 0 0 1 1 1 1 0 0 0 0 0 0 0 0 0 0 0 0 0 0 0 0 0 0 0 0 0 0 0 0 0 0 0
0 0 0 0 0 0 0 0 0 0 0 1 2 2 1 0 0 0 0 0 0 0 0 0 0 0 0 0 0 0 0 0 0 0 0 0 0 0 0 0 0 0 0
0 0 0 0 0 0 0 0 0 0 0 1 2 3 2 0 0 0 0 0 0 0 0 0 0 0 0 0 0 0 0 0 0 0 0 0 0 0 0 0 0 0 0
0 0 0 0 0 0 0 0 0 0 0 0 1 2 1 0 0 0 0 0 0 0 0 0 0 0 0 0 0 0 0 0 0 0 0 0 0 0 0 0 0 0 0
0 0 0 0 0 0 0 0 0 0 0 0 1 1 1 0 0 0 0 0 0 0 0 0 0 0 0 0 0 0 0 0 0 0 0 0 0 0 0 0 0 0 0
0 0 0 0 0 0 0 0 0 0 0 0 0 1 1 1 0 0 0 0 0 0 0 0 0 0 0 0 0 0 0 0 0 0 0 0 0 0 0 0 0 0 0
Wind_Speed
2 3 4 4 4 4 4 4 2 1 1 1 1 1 1 1 1 1 2 2 2 2 1 1 1 1 1 2 2 1 1 1 0 1 3 3 3 2 3 2 2 3 4
1 3 4 4 4 4 4 4 3 2 1 1 1 1 1 1 1 1 1 2 2 2 2 2 1 1 1 1 1 1 1 1 0 1 1 3 4 3 3 2 2 3 2
4 3 4 4 4 4 4 4 4 3 2 2 1 1 1 1 1 0 1 2 2 3 2 2 2 2 1 1 2 2 2 1 1 1 2 1 2 3 3 2 2 2 2
2 3 4 4 4 4 4 3 2 3 3 3 2 2 2 2 2 2 1 2 2 2 2 2 2 2 2 2 2 1 1 2 1 1 1 2 3 2 3 3 2 3 3
2 2 3 4 3 4 4 4 2 2 2 2 3 2 1 1 1 0 1 1 1 1 2 2 2 2 2 2 1 1 1 1 1 1 1 1 1 2 2 4 4 3 3
2 1 2 3 2 3 3 2 3 2 1 1 2 2 2 1 1 1 1 1 1 1 1 1 1 1 2 2 2 1 1 1 1 1 1 1 1 2 2 3 4 4 4
2 2 2 2 2 3 3 3 3 2 1 1 2 2 2 2 2 2 2 1 0 1 1 0 1 2 2 2 2 1 1 1 1 2 1 2 2 2 2 2 3 3 3
2 2 2 3 3 3 3 3 3 2 1 1 1 1 1 1 1 2 1 1 1 2 1 1 1 2 2 2 1 1 1 1 1 2 2 2 2 2 2 2 2 2 3
2 3 3 2 2 3 3 3 3 2 2 1 1 1 1 1 1 1 1 1 1 1 1 1 2 2 2 1 1 1 1 1 1 2 2 2 2 2 2 2 2 2 3
2 3 3 2 1 2 2 2 3 2 2 1 1 1 0 1 1 1 1 0 0 1 1 1 1 1 1 0 1 1 1 1 2 1 2 2 2 2 2 1 1 2 3
2 2 1 1 2 2 2 2 2 1 1 1 1 1 0 0 1 1 0 1 1 1 1 1 1 0 0 0 0 1 1 1 2 2 2 3 2 2 2 1 1 1 2
2 2 1 1 2 2 1 1 1 1 1 1 1 1 0 1 1 0 0 0 0 1 0 1 1 1 1 0 0 1 1 1 2 2 2 3 2 2 2 1 2 2 2
2 2 2 2 2 1 1 1 1 1 1 1 1 1 0 0 0 0 0 0 0 1 1 1 1 0 0 1 1 1 1 1 2 2 2 2 2 2 2 2 2 2 2
2 2 1 1 1 1 1 1 1 1 1 1 1 1 1 1 1 0 0 0 1 1 1 1 0 0 1 1 1 1 1 1 1 1 1 1 2 2 2 2 2 2 2
1 1 1 0 1 1 1 1 1 0 1 1 0 1 1 0 0 1 1 1 1 1 0 1 1 1 1 1 1 1 1 1 1 2 1 1 2 2 2 1 2 1 1
1 0 0 1 1 1 1 0 0 1 1 1 0 1 1 1 1 1 1 1 1 1 1 1 1 2 2 3 2 1 1 1 1 2 2 2 2 4 4 4 3 2 1
1 1 1 1 1 2 2 1 1 0 1 0 0 1 1 1 1 1 1 1 1 1 1 1 1 2 3 4 4 3 1 1 1 0 1 2 2 3 3 5 5 4 4
2 1 1 2 2 1 1 1 1 1 1 0 0 1 1 1 1 1 0 1 1 1 1 1 1 1 3 4 4 3 2 2 1 1 1 1 2 3 3 3 4 4 4
3 3 3 3 2 2 1 1 1 1 1 1 1 1 1 1 1 1 1 1 0 1 1 1 1 1 2 4 3 3 2 1 2 2 2 2 2 6 4 2 3 4 5
2 2 2 1 1 2 1 2 1 1 1 2 2 1 1 2 1 1 1 0 0 0 1 1 0 0 1 3 2 2 1 1 2 3 3 4 4 6 4 1 1 3 5
1 1 1 1 2 2 2 2 1 2 3 2 1 1 0 1 1 1 1 1 1 1 1 1 1 1 1 3 3 2 1 0 1 2 3 4 7 6 5 3 2 4 4
0 1 1 1 2 2 2 2 3 3 2 1 1 1 1 1 1 1 1 1 2 2 1 1 1 2 2 1 2 3 1 0 1 2 3 4 7 6 6 4 4 5 3
1 1 1 1 2 2 2 3 3 2 2 2 1 1 1 0 1 1 1 0 1 1 0 0 1 2 2 2 3 3 3 3 1 3 5 6 7 6 5 5 5 4 2
2 1 1 1 2 2 2 3 3 2 2 2 2 1 1 0 1 0 1 1 1 1 1 1 1 2 2 2 2 2 2 3 3 3 5 7 6 5 4 4 3 2 1
1 1 1 2 3 3 3 3 2 2 2 2 2 2 2 1 0 1 1 2 3 4 3 3 3 2 2 4 3 1 2 2 2 2 2 2 3 3 3 3 3 2 2
1 1 1 2 2 2 2 2 2 2 3 2 1 1 1 1 1 0 2 3 2 3 4 5 4 3 4 4 4 3 3 3 1 2 1 2 2 2 3 3 3 3 3
Wind_Direction
170 164 144 142 137 126 120 118 130 110 111 121 132 140 238 275 246 219 215 215 202 188 191 218 215 179 196 238 240 235 267 277 286 354 321 311 284 259 246 238 242 245 237
130 155 138 144 141 137 135 133 135 145 179 181 180 170 169 217 234 258 248 235 215 206 197 206 217 204 193 283 257 181 233 266 129 133 4 330 327 309 278 255 242 249 247
156 162 159 159 147 148 149 148 161 163 167 155 113 98 79 30 344 291 251 256 229 220 213 211 205 201 172 224 245 216 191 231 269 174 158 183 255 299 300 277 264 257 253
134 148 156 159 163 162 151 141 159 163 164 150 141 156 168 204 226 219 229 268 251 222 201 196 199 199 202 227 246 224 201 182 245 275 210 200 197 225 298 309 291 275 262
126 157 175 172 162 150 147 151 157 162 175 164 168 173 183 219 226 204 230 267 290 270 224 198 205 220 227 236 245 234 199 169 190 222 248 256 254 218 225 289 301 302 276
111 120 140 131 130 144 143 148 147 171 187 179 179 176 184 175 141 188 221 263 284 294 280 206 186 215 230 238 238 220 202 203 193 215 209 197 211 244 232 256 279 285 284
109 107 108 129 152 166 164 164 151 179 204 181 194 192 190 171 164 187 194 201 260 289 294 304 208 212 225 228 214 200 219 218 209 226 237 229 226 220 213 233 266 276 284
100 111 145 165 164 159 159 156 160 182 184 182 203 203 188 171 176 182 179 192 214 231 235 236 236 230 224 229 217 206 231 216 229 251 251 251 256 237 214 213 236 289 295
77 92 94 99 123 149 157 157 155 162 168 174 180 195 198 177 189 188 177 216 238 227 223 242 250 244 229 215 190 207 248 236 238 254 260 254 264 262 249 228 203 210 274
83 78 87 101 98 112 119 126 141 155 168 161 170 159 188 185 177 144 169 243 287 350 355 310 276 271 267 234 153 227 254 257 262 247 255 264 266 272 269 259 248 214 223
107 102 99 110 112 96 103 121 129 132 143 156 141 103 114 169 111 101 355 334 347 4 358 319 304 299 359 43 78 283 274 274 288 283 262 267 269 271 280 280 280 263 233
108 103 97 114 110 108 112 119 128 129 179 182 139 134 128 87 68 31 295 293 337 325 311 336 357 15 31 30 161 269 291 272 278 280 281 280 285 285 288 286 284 279 260
92 73 70 98 126 135 128 135 152 184 202 171 153 152 160 148 202 253 300 3 63 9 7 34 10 0 348 327 290 262 266 270 267 264 262 276 290 289 284 281 289 287 298
97 78 75 96 100 104 128 137 164 188 176 159 163 183 218 211 210 235 79 84 81 40 11 12 321 284 309 309 303 300 301 315 315 296 282 284 270 262 270 279 285 288 300
106 112 104 86 64 85 109 139 172 192 150 129 152 228 236 202 100 80 79 71 53 30 15 1 350 353 353 336 332 311 357 4 340 336 325 321 325 315 299 289 275 280 287
172 102 69 125 155 162 158 161 210 246 139 120 195 221 158 121 104 104 79 63 26 353 8 7 2 8 3 352 1 30 33 16 357 343 334 331 350 347 340 325 313 288 251
201 197 196 193 216 204 179 186 221 233 97 122 208 161 150 134 128 117 77 36 354 7 8 358 34 31 2 7 12 28 63 44 8 328 306 336 350 344 332 329 335 330 317
198 217 220 224 233 216 191 171 154 140 133 117 16 160 147 151 132 113 159 300 309 338 341 24 56 54 8 8 10 26 55 48 1 323 274 306 316 322 331 323 330 321 313
201 213 219 228 234 221 196 140 117 115 125 162 203 203 166 159 148 172 248 266 342 353 27 67 84 56 348 356 12 40 51 33 345 327 333 322 305 310 327 335 324 321 316
201 213 222 219 224 236 176 128 151 165 217 216 215 211 168 167 192 205 222 229 156 134 93 70 63 86 323 337 7 52 77 26 333 325 323 323 316 314 324 298 288 306 302
227 191 172 202 228 231 159 156 199 230 234 214 188 163 158 177 179 158 162 146 105 88 78 55 328 315 308 331 0 33 90 346 316 319 316 311 318 317 312 300 252 266 283
225 168 170 246 258 219 164 184 228 236 221 187 153 165 183 170 123 110 76 81 108 103 56 29 336 319 319 336 345 0 3 316 247 285 292 300 320 325 321 314 313 318 324
206 190 184 239 272 243 194 209 242 227 189 158 155 172 181 166 134 135 153 127 122 136 193 293 308 306 314 315 328 337 340 342 299 283 300 316 326 331 329 329 333 340 349
210 195 168 228 271 270 242 226 231 205 164 161 172 186 175 210 335 343 177 182 207 200 199 212 254 281 304 308 318 326 326 332 327 314 319 327 334 342 331 329 334 329 314
224 182 188 230 257 267 266 247 213 169 161 182 196 195 189 188 216 303 255 224 231 211 199 212 217 227 272 276 275 276 294 291 285 321 346 355 350 346 338 332 328 329 339
213 201 216 240 258 262 273 270 215 174 158 169 194 196 186 189 198 218 330 320 259 248 221 213 212 236 241 272 299 308 312 323 3 75 360 326 322 319 321 326 329 329 326